When you browse on this site, cookies collect data to enhance your experience and personalize the content and advertising you see.
Visit our Privacy Policy to learn more. By continuing to use the site, you agree to this use of cookies and data.
  • In Latvia
  • List of Countries
  • For 7 days
  • Water Temperature
  • Satellite Maps
  • Weather Map
  • Weather Widgets
  • user-avatar
    Login

    Hourly Weather Balvi

    Today, 21 April, Sunday

    Time Temperature Precipitation Wind Pressure Humidity
    00:00 +4°C° 0 mm 2 mps 758 mmHg 62%
    01:00 +4°C° 0 mm 2 mps 758 mmHg 66%
    02:00 +3°C° 0 mm 2 mps 758 mmHg 79%
    03:00 +3°C° 0 mm 2 mps 758 mmHg 82%
    04:00 +2°C° 0 mm 3 mps 757 mmHg 84%
    05:00 +2°C° 0 mm 3 mps 757 mmHg 87%
    06:00 +3°C° 0 mm 3 mps 758 mmHg 81%
    07:00 +5°C° 0 mm 3 mps 758 mmHg 74%
    08:00 +6°C° 0 mm 4 mps 758 mmHg 68%
    09:00 +8°C° 0 mm 4 mps 758 mmHg 60%
    10:00 +11°C° 0 mm 4 mps 758 mmHg 52%
    11:00 +12°C° 0 mm 4 mps 758 mmHg 45%
    12:00 +13°C° 0 mm 4 mps 758 mmHg 41%
    13:00 +14°C° 0 mm 4 mps 758 mmHg 38%
    14:00 +14°C° 0 mm 4 mps 758 mmHg 35%
    15:00 +14°C° 0 mm 4 mps 758 mmHg 35%
    16:00 +14°C° 0 mm 4 mps 758 mmHg 36%
    17:00 +14°C° 0 mm 4 mps 758 mmHg 36%
    18:00 +12°C° 0 mm 3 mps 758 mmHg 44%
    19:00 +11°C° 0 mm 3 mps 758 mmHg 51%
    20:00 +9°C° 0 mm 2 mps 758 mmHg 58%
    21:00 +8°C° 0 mm 2 mps 759 mmHg 61%
    22:00 +8°C° 0 mm 2 mps 759 mmHg 64%
    23:00 +7°C° 0 mm 2 mps 759 mmHg 67%

    Tomorrow, 22 April, Monday

    Time Temperature Precipitation Wind Pressure Humidity
    00:00 +7°C° 0 mm 2 mps 760 mmHg 71%
    01:00 +7°C° 0 mm 2 mps 760 mmHg 74%
    02:00 +6°C° 0 mm 2 mps 760 mmHg 78%
    03:00 +7°C° 0 mm 1 mps 760 mmHg 80%
    04:00 +6°C° 0 mm 1 mps 760 mmHg 81%
    05:00 +6°C° 0 mm 1 mps 761 mmHg 83%
    06:00 +8°C° 0 mm 1 mps 761 mmHg 73%
    07:00 +10°C° 0 mm 1 mps 761 mmHg 64%
    08:00 +12°C° 0 mm 1 mps 761 mmHg 54%
    09:00 +14°C° 0 mm 2 mps 761 mmHg 48%
    10:00 +15°C° 0 mm 2 mps 762 mmHg 41%
    11:00 +17°C° 0 mm 3 mps 762 mmHg 35%
    12:00 +17°C° 0 mm 3 mps 761 mmHg 34%
    13:00 +18°C° 0 mm 3 mps 761 mmHg 33%
    14:00 +18°C° 0 mm 3 mps 761 mmHg 32%
    15:00 +18°C° 0 mm 3 mps 761 mmHg 33%
    16:00 +18°C° 0 mm 3 mps 761 mmHg 34%
    17:00 +18°C° 0 mm 2 mps 761 mmHg 35%
    18:00 +16°C° 0 mm 2 mps 761 mmHg 41%
    19:00 +14°C° 0 mm 1 mps 761 mmHg 47%
    20:00 +12°C° 0 mm 1 mps 761 mmHg 54%
    21:00 +11°C° 0 mm 1 mps 762 mmHg 56%
    22:00 +10°C° 0 mm 1 mps 762 mmHg 58%
    23:00 +10°C° 0 mm 1 mps 762 mmHg 59%

    Day after tomorrow, 23 April, Tuesday

    Time Temperature Precipitation Wind Pressure Humidity
    00:00 +9°C° 0 mm 1 mps 762 mmHg 61%
    01:00 +9°C° 0 mm 1 mps 763 mmHg 63%
    02:00 +8°C° 0 mm 1 mps 763 mmHg 65%
    03:00 +8°C° 0 mm 1 mps 763 mmHg 66%
    04:00 +7°C° 0 mm 1 mps 763 mmHg 68%
    05:00 +7°C° 0 mm 1 mps 763 mmHg 69%
    06:00 +9°C° 0 mm 1 mps 764 mmHg 63%
    07:00 +11°C° 0 mm 1 mps 764 mmHg 57%
    08:00 +13°C° 0 mm 1 mps 764 mmHg 50%
    09:00 +15°C° 0 mm 1 mps 764 mmHg 45%
    10:00 +18°C° 0 mm 1 mps 764 mmHg 39%
    11:00 +18°C° 0 mm 2 mps 764 mmHg 33%
    12:00 +19°C° 0 mm 2 mps 763 mmHg 32%
    13:00 +19°C° 0 mm 2 mps 763 mmHg 31%
    14:00 +19°C° 0 mm 2 mps 763 mmHg 30%
    15:00 +19°C° 0 mm 2 mps 762 mmHg 32%
    16:00 +19°C° 0 mm 2 mps 762 mmHg 33%
    17:00 +19°C° 0 mm 2 mps 762 mmHg 34%
    18:00 +17°C° 0 mm 2 mps 762 mmHg 41%
    19:00 +15°C° 0 mm 1 mps 762 mmHg 47%
    20:00 +13°C° 0 mm 1 mps 762 mmHg 54%
    21:00 +12°C° 0 mm 1 mps 762 mmHg 56%
    22:00 +11°C° 0 mm 1 mps 762 mmHg 58%
    23:00 +10°C° 0 mm 1 mps 762 mmHg 60%

    24 April, Wednesday

    Time Temperature Precipitation Wind Pressure Humidity
    00:00 +10°C° 0 mm 1 mps 762 mmHg 61%
    01:00 +10°C° 0 mm 1 mps 763 mmHg 62%
    02:00 +9°C° 0 mm 1 mps 763 mmHg 63%
    03:00 +9°C° 0 mm 1 mps 763 mmHg 65%
    04:00 +8°C° 0 mm 1 mps 763 mmHg 68%
    05:00 +8°C° 0 mm 1 mps 763 mmHg 70%
    06:00 +10°C° 0 mm 1 mps 763 mmHg 64%
    07:00 +12°C° 0 mm 2 mps 763 mmHg 59%
    08:00 +14°C° 0 mm 2 mps 763 mmHg 53%
    09:00 +14°C° 0 mm 3 mps 763 mmHg 48%
    10:00 +17°C° 0 mm 3 mps 762 mmHg 42%
    11:00 +18°C° 0 mm 4 mps 762 mmHg 36%
    12:00 +19°C° 0 mm 4 mps 762 mmHg 36%
    13:00 +19°C° 0 mm 4 mps 761 mmHg 35%
    14:00 +20°C° 0 mm 4 mps 761 mmHg 35%
    15:00 +19°C° 0 mm 4 mps 761 mmHg 36%
    16:00 +19°C° 0 mm 4 mps 760 mmHg 37%
    17:00 +19°C° 0 mm 4 mps 760 mmHg 39%
    18:00 +17°C° 0 mm 3 mps 760 mmHg 46%
    19:00 +14°C° 0 mm 3 mps 760 mmHg 53%
    20:00 +13°C° 0 mm 2 mps 760 mmHg 60%
    21:00 +13°C° 0 mm 2 mps 760 mmHg 63%
    22:00 +12°C° 0 mm 2 mps 760 mmHg 65%
    23:00 +10°C° 0 mm 2 mps 760 mmHg 68%

    25 April, Thursday

    Time Temperature Precipitation Wind Pressure Humidity
    00:00 +10°C° 0 mm 2 mps 760 mmHg 69%
    01:00 +9°C° 0 mm 2 mps 760 mmHg 71%
    02:00 +9°C° 0 mm 2 mps 760 mmHg 72%
    03:00 +9°C° 0 mm 2 mps 760 mmHg 73%
    04:00 +8°C° 0 mm 2 mps 759 mmHg 74%
    05:00 +8°C° 0 mm 2 mps 759 mmHg 75%
    06:00 +10°C° 0 mm 3 mps 759 mmHg 68%
    07:00 +12°C° 0 mm 3 mps 759 mmHg 61%
    08:00 +13°C° 0 mm 4 mps 759 mmHg 54%
    09:00 +15°C° 0 mm 4 mps 759 mmHg 50%
    10:00 +17°C° 0 mm 5 mps 758 mmHg 46%
    11:00 +19°C° 0 mm 5 mps 758 mmHg 42%
    12:00 +20°C° 0 mm 5 mps 758 mmHg 42%
    13:00 +20°C° 0 mm 5 mps 757 mmHg 42%
    14:00 +21°C° 0 mm 5 mps 757 mmHg 41%
    15:00 +21°C° 0 mm 4 mps 757 mmHg 42%
    16:00 +21°C° 0 mm 4 mps 756 mmHg 43%
    17:00 +21°C° 0 mm 4 mps 756 mmHg 45%
    18:00 +19°C° 0 mm 3 mps 756 mmHg 51%
    19:00 +17°C° 0 mm 3 mps 755 mmHg 57%
    20:00 +15°C° 0 mm 2 mps 755 mmHg 64%
    21:00 +14°C° 0 mm 2 mps 755 mmHg 66%
    22:00 +14°C° 0 mm 2 mps 755 mmHg 68%
    23:00 +13°C° 0 mm 2 mps 755 mmHg 71%

    26 April, Friday

    Time Temperature Precipitation Wind Pressure Humidity
    00:00 +12°C° 0 mm 2 mps 755 mmHg 73%
    01:00 +12°C° 0 mm 2 mps 755 mmHg 75%
    02:00 +10°C° 0 mm 2 mps 754 mmHg 78%
    03:00 +10°C° 0 mm 2 mps 754 mmHg 80%
    04:00 +10°C° 0 mm 2 mps 754 mmHg 82%
    05:00 +9°C° 0 mm 2 mps 753 mmHg 84%
    06:00 +12°C° 0 mm 2 mps 753 mmHg 78%
    07:00 +14°C° 0 mm 2 mps 753 mmHg 72%
    08:00 +16°C° 0 mm 2 mps 753 mmHg 65%
    09:00 +17°C° 0 mm 3 mps 753 mmHg 60%
    10:00 +19°C° 0 mm 3 mps 752 mmHg 56%
    11:00 +21°C° 0 mm 3 mps 752 mmHg 51%
    12:00 +22°C° 0 mm 3 mps 752 mmHg 50%
    13:00 +22°C° 0 mm 3 mps 751 mmHg 50%
    14:00 +24°C° 0 mm 3 mps 751 mmHg 49%
    15:00 +24°C° 0.2 mm 2 mps 751 mmHg 52%
    16:00 +23°C° 0.2 mm 2 mps 750 mmHg 54%
    17:00 +23°C° 0.2 mm 2 mps 750 mmHg 57%
    18:00 +20°C° 0.4 mm 2 mps 750 mmHg 66%
    19:00 +19°C° 0.4 mm 1 mps 750 mmHg 76%
    20:00 +18°C° 0.4 mm 1 mps 750 mmHg 85%
    21:00 +16°C° 0 mm 1 mps 750 mmHg 87%
    22:00 +15°C° 0 mm 1 mps 749 mmHg 90%
    23:00 +15°C° 0 mm 1 mps 749 mmHg 92%
    Show more